Year,Month,Day,Hour,Minute,Value (Times are PST for windspeed in km/hr)
2019,10,17,00,00,10.20
2019,10,17,00,01,10.90
2019,10,17,00,02,12.60
2019,10,17,00,03,12.20
2019,10,17,00,04,16.70
2019,10,17,00,05,11.20
2019,10,17,00,06,12.20
2019,10,17,00,07,10.60
2019,10,17,00,08,17.50
2019,10,17,00,09,16.90
2019,10,17,00,10,17.30
2019,10,17,00,11,17.10
2019,10,17,00,12,16.30
2019,10,17,00,13,17.50
2019,10,17,00,14,19.30
2019,10,17,00,15,18.10
2019,10,17,00,16,16.30
2019,10,17,00,17,14.70
2019,10,17,00,18,18.10
2019,10,17,00,19,16.50
2019,10,17,00,20,19.60
2019,10,17,00,21,20.10
2019,10,17,00,22,17.10
2019,10,17,00,23,18.30
2019,10,17,00,24,16.10
2019,10,17,00,25,18.10
2019,10,17,00,26,16.80
2019,10,17,00,27,17.00
2019,10,17,00,28,14.00
2019,10,17,00,29,18.40
2019,10,17,00,30,14.70
2019,10,17,00,31,18.40
2019,10,17,00,32,18.10
2019,10,17,00,33,18.40
2019,10,17,00,34,14.30
2019,10,17,00,35,12.70
2019,10,17,00,36,17.30
2019,10,17,00,37,16.30
2019,10,17,00,38,10.80
2019,10,17,00,39,16.80
2019,10,17,00,40,13.90
2019,10,17,00,41,18.00
2019,10,17,00,42,12.90
2019,10,17,00,43,15.30
2019,10,17,00,44,13.50
2019,10,17,00,45,13.30
2019,10,17,00,46,12.30
2019,10,17,00,47,11.50
2019,10,17,00,48,11.90
2019,10,17,00,49,12.80
2019,10,17,00,50,14.50
2019,10,17,00,51,14.10
2019,10,17,00,52,10.90
2019,10,17,00,53,17.60
2019,10,17,00,54,16.40
2019,10,17,00,55,21.00
2019,10,17,00,56,19.10
2019,10,17,00,57,20.70
2019,10,17,00,58,19.90
2019,10,17,00,59,21.10
2019,10,17,01,00,18.50
2019,10,17,01,01,19.40
2019,10,17,01,02,16.90
2019,10,17,01,03,19.80
2019,10,17,01,04,23.10
2019,10,17,01,05,19.80
2019,10,17,01,06,20.60
2019,10,17,01,07,21.20
2019,10,17,01,08,17.70
2019,10,17,01,09,16.70
2019,10,17,01,10,21.60
2019,10,17,01,11,16.50
2019,10,17,01,12,17.70
2019,10,17,01,13,17.00
2019,10,17,01,14,16.60
2019,10,17,01,15,17.30
2019,10,17,01,16,14.20
2019,10,17,01,17,12.20
2019,10,17,01,18,13.70
2019,10,17,01,19,12.40
2019,10,17,01,20,18.00
2019,10,17,01,21,15.50
2019,10,17,01,22,13.40
2019,10,17,01,23,16.90
2019,10,17,01,24,17.30
2019,10,17,01,25,16.90
2019,10,17,01,26,15.40
2019,10,17,01,27,18.30
2019,10,17,01,28,11.10
2019,10,17,01,29,10.10
2019,10,17,01,30,12.30
2019,10,17,01,31,12.40
2019,10,17,01,32,13.90
2019,10,17,01,33,11.20
2019,10,17,01,34,9.80
2019,10,17,01,35,16.00
2019,10,17,01,36,14.10
2019,10,17,01,37,16.40
2019,10,17,01,38,18.80
2019,10,17,01,39,13.10
2019,10,17,01,40,15.60
2019,10,17,01,41,13.40
2019,10,17,01,42,15.90
2019,10,17,01,43,12.90
2019,10,17,01,44,13.50
2019,10,17,01,45,14.20
2019,10,17,01,46,12.50
2019,10,17,01,47,17.20
2019,10,17,01,48,19.60
2019,10,17,01,49,21.60
2019,10,17,01,50,18.10
2019,10,17,01,51,18.00
2019,10,17,01,52,16.50
2019,10,17,01,53,22.00
2019,10,17,01,54,22.60
2019,10,17,01,55,18.50
2019,10,17,01,56,18.70
2019,10,17,01,57,19.50
2019,10,17,01,58,24.10
2019,10,17,01,59,19.90
2019,10,17,02,00,21.90
2019,10,17,02,01,17.80
2019,10,17,02,02,19.70
2019,10,17,02,03,16.70
2019,10,17,02,04,18.70
2019,10,17,02,05,14.80
2019,10,17,02,06,17.60
2019,10,17,02,07,19.20
2019,10,17,02,08,21.10
2019,10,17,02,09,20.30
2019,10,17,02,10,22.10
2019,10,17,02,11,20.40
2019,10,17,02,12,21.90
2019,10,17,02,13,24.90
2019,10,17,02,14,23.50
2019,10,17,02,15,17.90
2019,10,17,02,16,22.30
2019,10,17,02,17,19.80
2019,10,17,02,18,18.30
2019,10,17,02,19,17.00
2019,10,17,02,20,16.50
2019,10,17,02,21,20.80
2019,10,17,02,22,18.00
2019,10,17,02,23,20.00
2019,10,17,02,24,19.80
2019,10,17,02,25,21.60
2019,10,17,02,26,18.40
2019,10,17,02,27,18.40
2019,10,17,02,28,16.00
2019,10,17,02,29,17.30
2019,10,17,02,30,17.00
2019,10,17,02,31,20.30
2019,10,17,02,32,18.80
2019,10,17,02,33,17.10
2019,10,17,02,34,20.30
2019,10,17,02,35,22.70
2019,10,17,02,36,22.90
2019,10,17,02,37,24.90
2019,10,17,02,38,26.30
2019,10,17,02,39,27.60
2019,10,17,02,40,23.00
2019,10,17,02,41,19.80
2019,10,17,02,42,20.20
2019,10,17,02,43,20.90
2019,10,17,02,44,21.00
2019,10,17,02,45,24.60
2019,10,17,02,46,17.40
2019,10,17,02,47,22.50
2019,10,17,02,48,20.60
2019,10,17,02,49,22.00
2019,10,17,02,50,25.20
2019,10,17,02,51,16.60
2019,10,17,02,52,18.40
2019,10,17,02,53,19.40
2019,10,17,02,54,21.50
2019,10,17,02,55,22.50
2019,10,17,02,56,24.50
2019,10,17,02,57,26.00
2019,10,17,02,58,22.50
2019,10,17,02,59,20.10
2019,10,17,03,00,28.40
2019,10,17,03,01,27.40
2019,10,17,03,02,23.10
2019,10,17,03,03,26.20
2019,10,17,03,04,23.80
2019,10,17,03,05,19.20
2019,10,17,03,06,20.00
2019,10,17,03,07,21.10
2019,10,17,03,08,21.40
2019,10,17,03,09,18.10
2019,10,17,03,10,24.30
2019,10,17,03,11,24.90
2019,10,17,03,12,23.10
2019,10,17,03,13,23.70
2019,10,17,03,14,21.00
2019,10,17,03,15,20.00
2019,10,17,03,16,19.80
2019,10,17,03,17,18.90
2019,10,17,03,18,20.70
2019,10,17,03,19,19.80
2019,10,17,03,20,27.40
2019,10,17,03,21,20.70
2019,10,17,03,22,24.50
2019,10,17,03,23,27.60
2019,10,17,03,24,27.00
2019,10,17,03,25,23.80
2019,10,17,03,26,24.10
2019,10,17,03,27,25.60
2019,10,17,03,28,26.40
2019,10,17,03,29,23.70
2019,10,17,03,30,21.70
2019,10,17,03,31,26.90
2019,10,17,03,32,18.80
2019,10,17,03,33,10.90
2019,10,17,03,34,12.40
2019,10,17,03,35,17.80
2019,10,17,03,36,18.40
2019,10,17,03,37,16.70
2019,10,17,03,38,20.40
2019,10,17,03,39,18.40
2019,10,17,03,40,19.40
2019,10,17,03,41,19.60
2019,10,17,03,42,18.70
2019,10,17,03,43,23.50
2019,10,17,03,44,19.80
2019,10,17,03,45,24.30
2019,10,17,03,46,22.50
2019,10,17,03,47,22.00
2019,10,17,03,48,20.70
2019,10,17,03,49,19.80
2019,10,17,03,50,25.20
2019,10,17,03,51,24.80
2019,10,17,03,52,21.60
2019,10,17,03,53,20.60
2019,10,17,03,54,17.90
2019,10,17,03,55,22.80
2019,10,17,03,56,20.40
2019,10,17,03,57,22.60
2019,10,17,03,58,16.90
2019,10,17,03,59,16.20
2019,10,17,04,00,17.20
2019,10,17,04,01,19.30
2019,10,17,04,02,21.90
2019,10,17,04,03,19.10
2019,10,17,04,04,20.10
2019,10,17,04,05,21.00
2019,10,17,04,06,21.50
2019,10,17,04,07,19.80
2019,10,17,04,08,20.20
2019,10,17,04,09,22.10
2019,10,17,04,10,21.50
2019,10,17,04,11,21.10
2019,10,17,04,12,16.00
2019,10,17,04,13,23.20
2019,10,17,04,14,19.30
2019,10,17,04,15,19.70
2019,10,17,04,16,20.20
2019,10,17,04,17,18.20
2019,10,17,04,18,19.60
2019,10,17,04,19,21.50
2019,10,17,04,20,21.90
2019,10,17,04,21,28.90
2019,10,17,04,22,24.60
2019,10,17,04,23,20.70
2019,10,17,04,24,24.40
2019,10,17,04,25,18.80
2019,10,17,04,26,20.50
2019,10,17,04,27,24.90
2019,10,17,04,28,23.40
2019,10,17,04,29,23.60
2019,10,17,04,30,26.20
2019,10,17,04,31,23.50
2019,10,17,04,32,25.10
2019,10,17,04,33,26.80
2019,10,17,04,34,24.90
2019,10,17,04,35,21.90
2019,10,17,04,36,21.80
2019,10,17,04,37,20.00
2019,10,17,04,38,23.00
2019,10,17,04,39,22.40
2019,10,17,04,40,19.90
2019,10,17,04,41,23.10
2019,10,17,04,42,20.40
2019,10,17,04,43,20.30
2019,10,17,04,44,22.90
2019,10,17,04,45,18.70
2019,10,17,04,46,21.60
2019,10,17,04,47,23.20
2019,10,17,04,48,27.50
2019,10,17,04,49,26.60
2019,10,17,04,50,20.90
2019,10,17,04,51,15.60
2019,10,17,04,52,21.80
2019,10,17,04,53,23.80
2019,10,17,04,54,19.80
2019,10,17,04,55,17.50
2019,10,17,04,56,16.00
2019,10,17,04,57,20.90
2019,10,17,04,58,18.10
2019,10,17,04,59,13.10
2019,10,17,05,00,19.40
2019,10,17,05,01,24.20
2019,10,17,05,02,21.50
2019,10,17,05,03,21.60
2019,10,17,05,04,18.10
2019,10,17,05,05,24.40
2019,10,17,05,06,22.50
2019,10,17,05,07,20.30
2019,10,17,05,08,22.50
2019,10,17,05,09,22.00
2019,10,17,05,10,21.40
2019,10,17,05,11,24.00
2019,10,17,05,12,21.30
2019,10,17,05,13,22.70
2019,10,17,05,14,23.80
2019,10,17,05,15,23.50
2019,10,17,05,16,27.10
2019,10,17,05,17,24.20
2019,10,17,05,18,22.70
2019,10,17,05,19,25.30
2019,10,17,05,20,26.60
2019,10,17,05,21,20.70
2019,10,17,05,22,19.80
2019,10,17,05,23,30.70
2019,10,17,05,24,19.30
2019,10,17,05,25,24.60
2019,10,17,05,26,19.20
2019,10,17,05,27,26.40
2019,10,17,05,28,22.40
2019,10,17,05,29,25.00
2019,10,17,05,30,23.30
2019,10,17,05,31,19.50
2019,10,17,05,32,27.70
2019,10,17,05,33,22.20
2019,10,17,05,34,22.30
2019,10,17,05,35,22.70
2019,10,17,05,36,27.00
2019,10,17,05,37,27.00
2019,10,17,05,38,31.10
2019,10,17,05,39,26.30
2019,10,17,05,40,18.40
2019,10,17,05,41,25.00
2019,10,17,05,42,21.50
2019,10,17,05,43,26.70
2019,10,17,05,44,25.00
2019,10,17,05,45,29.80
2019,10,17,05,46,24.60
2019,10,17,05,47,27.40
2019,10,17,05,48,30.50
2019,10,17,05,49,21.90
2019,10,17,05,50,24.40
2019,10,17,05,51,25.70
2019,10,17,05,52,21.10
2019,10,17,05,53,24.30
2019,10,17,05,54,13.50
2019,10,17,05,55,18.90
2019,10,17,05,56,18.80
2019,10,17,05,57,16.00
2019,10,17,05,58,18.20
2019,10,17,05,59,14.10
2019,10,17,06,00,21.20
2019,10,17,06,01,28.70
2019,10,17,06,02,17.90
2019,10,17,06,03,17.50
2019,10,17,06,04,14.20
2019,10,17,06,05,19.40
2019,10,17,06,06,22.10
2019,10,17,06,07,15.00
2019,10,17,06,08,20.20
2019,10,17,06,09,19.30
2019,10,17,06,10,14.60
2019,10,17,06,11,17.60
2019,10,17,06,12,15.60
2019,10,17,06,13,13.90
2019,10,17,06,14,14.00
2019,10,17,06,15,13.70
2019,10,17,06,16,14.80
2019,10,17,06,17,11.40
2019,10,17,06,18,9.50
2019,10,17,06,19,14.00
2019,10,17,06,20,8.60
2019,10,17,06,21,12.50
2019,10,17,06,22,7.80
2019,10,17,06,23,10.30
2019,10,17,06,24,10.80
2019,10,17,06,25,11.70
2019,10,17,06,26,20.00
2019,10,17,06,27,13.10
2019,10,17,06,28,15.00
2019,10,17,06,29,14.70
2019,10,17,06,30,15.40
2019,10,17,06,31,22.80
2019,10,17,06,32,25.00
2019,10,17,06,33,21.20
2019,10,17,06,34,21.30
2019,10,17,06,35,18.50
2019,10,17,06,36,17.10
2019,10,17,06,37,17.80
2019,10,17,06,38,15.00
2019,10,17,06,39,16.00
2019,10,17,06,40,20.50
2019,10,17,06,41,18.90
2019,10,17,06,42,17.50
2019,10,17,06,43,13.20
2019,10,17,06,44,17.00
2019,10,17,06,45,13.70
2019,10,17,06,46,11.50
2019,10,17,06,47,12.90
2019,10,17,06,48,18.70
2019,10,17,06,49,18.50
2019,10,17,06,50,15.90
2019,10,17,06,51,15.60
2019,10,17,06,52,18.00
2019,10,17,06,53,19.60
2019,10,17,06,54,18.80
2019,10,17,06,55,21.50
2019,10,17,06,56,17.20
2019,10,17,06,57,17.80
2019,10,17,06,58,15.10
2019,10,17,06,59,19.00
2019,10,17,07,00,13.70
2019,10,17,07,01,12.10
2019,10,17,07,02,14.50
2019,10,17,07,03,15.60
2019,10,17,07,04,15.70
2019,10,17,07,05,18.30
2019,10,17,07,06,13.70
2019,10,17,07,07,13.90
2019,10,17,07,08,17.20
2019,10,17,07,09,11.00
2019,10,17,07,10,15.30
2019,10,17,07,11,17.10
2019,10,17,07,12,17.80
2019,10,17,07,13,15.30
2019,10,17,07,14,15.10
2019,10,17,07,15,14.60
2019,10,17,07,16,14.00
2019,10,17,07,17,17.60
2019,10,17,07,18,17.60
2019,10,17,07,19,16.40
2019,10,17,07,20,13.50
2019,10,17,07,21,17.70
2019,10,17,07,22,12.30
2019,10,17,07,23,17.30
2019,10,17,07,24,14.50
2019,10,17,07,25,13.60
2019,10,17,07,26,13.70
2019,10,17,07,27,10.90
2019,10,17,07,28,6.90
2019,10,17,07,29,14.40
2019,10,17,07,30,20.60
2019,10,17,07,31,12.50
2019,10,17,07,32,17.20
2019,10,17,07,33,15.20
2019,10,17,07,34,14.20
2019,10,17,07,35,16.20
2019,10,17,07,36,12.70
2019,10,17,07,37,13.30
2019,10,17,07,38,9.50
2019,10,17,07,39,12.60
2019,10,17,07,40,10.60
2019,10,17,07,41,8.30
2019,10,17,07,42,10.90
2019,10,17,07,43,16.60
2019,10,17,07,44,17.90
2019,10,17,07,45,15.20
2019,10,17,07,46,14.10
2019,10,17,07,47,12.30
2019,10,17,07,48,11.50
2019,10,17,07,49,13.50
2019,10,17,07,50,14.80
2019,10,17,07,51,15.60
2019,10,17,07,52,16.90
2019,10,17,07,53,15.60
2019,10,17,07,54,10.50
2019,10,17,07,55,9.90
2019,10,17,07,56,11.90
2019,10,17,07,57,10.60
2019,10,17,07,58,14.60
2019,10,17,07,59,12.60
2019,10,17,08,00,13.90
2019,10,17,08,01,9.50
2019,10,17,08,02,12.50
2019,10,17,08,03,18.30
2019,10,17,08,04,15.60
2019,10,17,08,05,18.90
2019,10,17,08,06,14.50
2019,10,17,08,07,12.30
2019,10,17,08,08,14.50
2019,10,17,08,09,17.30
2019,10,17,08,10,15.50
2019,10,17,08,11,13.60
2019,10,17,08,12,10.20
2019,10,17,08,13,13.80
2019,10,17,08,14,12.80
2019,10,17,08,15,16.00
2019,10,17,08,16,25.10
2019,10,17,08,17,18.60
2019,10,17,08,18,15.10
2019,10,17,08,19,19.10
2019,10,17,08,20,17.50
2019,10,17,08,21,18.50
2019,10,17,08,22,13.50
2019,10,17,08,23,12.80
2019,10,17,08,24,15.30
2019,10,17,08,25,15.00
2019,10,17,08,26,15.80
2019,10,17,08,27,22.20
2019,10,17,08,28,17.30
2019,10,17,08,29,15.40
2019,10,17,08,30,11.50
2019,10,17,08,31,12.80
2019,10,17,08,32,13.00
2019,10,17,08,33,12.70
2019,10,17,08,34,10.40
2019,10,17,08,35,17.70
2019,10,17,08,36,16.40
2019,10,17,08,37,11.20
2019,10,17,08,38,11.60
2019,10,17,08,39,8.50
2019,10,17,08,40,15.00
2019,10,17,08,41,10.40
2019,10,17,08,42,11.50
2019,10,17,08,43,12.60
2019,10,17,08,44,7.30
2019,10,17,08,45,13.40
2019,10,17,08,46,10.50
2019,10,17,08,47,15.00
2019,10,17,08,48,14.80
2019,10,17,08,49,16.70
2019,10,17,08,50,13.60
2019,10,17,08,51,12.80
2019,10,17,08,52,13.10
2019,10,17,08,53,11.90
2019,10,17,08,54,11.00
2019,10,17,08,55,8.50
2019,10,17,08,56,10.20
2019,10,17,08,57,12.30
2019,10,17,08,58,11.90
2019,10,17,08,59,11.00
2019,10,17,09,00,10.10
2019,10,17,09,01,11.20
2019,10,17,09,02,7.90
2019,10,17,09,03,11.90
2019,10,17,09,04,9.20
2019,10,17,09,05,5.70
2019,10,17,09,06,3.90
2019,10,17,09,07,7.90
2019,10,17,09,08,9.50
2019,10,17,09,09,11.40
2019,10,17,09,10,5.40
2019,10,17,09,11,6.70
2019,10,17,09,12,9.30
2019,10,17,09,13,5.20
2019,10,17,09,14,8.50
2019,10,17,09,15,8.60
2019,10,17,09,16,6.80
2019,10,17,09,17,10.40
2019,10,17,09,18,13.60
2019,10,17,09,19,15.00
2019,10,17,09,20,13.50
2019,10,17,09,21,12.00
2019,10,17,09,22,10.10
2019,10,17,09,23,11.50
2019,10,17,09,24,13.10
2019,10,17,09,25,12.20
2019,10,17,09,26,8.40
2019,10,17,09,27,7.20
2019,10,17,09,28,6.00
2019,10,17,09,29,8.90
2019,10,17,09,30,11.60
2019,10,17,09,31,12.50
2019,10,17,09,32,11.00
2019,10,17,09,33,9.50
2019,10,17,09,34,11.60
2019,10,17,09,35,12.60
2019,10,17,09,36,13.00
2019,10,17,09,37,12.20
2019,10,17,09,38,18.80
2019,10,17,09,39,15.30
2019,10,17,09,40,13.40
2019,10,17,09,41,16.50
2019,10,17,09,42,15.00
2019,10,17,09,43,17.80
2019,10,17,09,44,16.50
2019,10,17,09,45,15.40
2019,10,17,09,46,15.60
2019,10,17,09,47,14.40
2019,10,17,09,48,16.80
2019,10,17,09,49,15.70
2019,10,17,09,50,10.60
2019,10,17,09,51,13.20
2019,10,17,09,52,14.80
2019,10,17,09,53,13.60
2019,10,17,09,54,13.90
2019,10,17,09,55,16.00
2019,10,17,09,56,15.70
2019,10,17,09,57,11.20
2019,10,17,09,58,14.70
2019,10,17,09,59,16.00
2019,10,17,10,00,17.50
2019,10,17,10,01,13.10
2019,10,17,10,02,12.60
2019,10,17,10,03,16.10
2019,10,17,10,04,15.00
2019,10,17,10,05,11.30
2019,10,17,10,06,11.70
2019,10,17,10,07,8.40
2019,10,17,10,08,12.60
2019,10,17,10,09,11.20
2019,10,17,10,10,11.30
2019,10,17,10,11,10.00
2019,10,17,10,12,15.90
2019,10,17,10,13,15.00
2019,10,17,10,14,14.20
2019,10,17,10,15,17.30
2019,10,17,10,16,16.70
2019,10,17,10,17,16.20
2019,10,17,10,18,15.80
2019,10,17,10,19,12.00
2019,10,17,10,20,14.10
2019,10,17,10,21,17.90
2019,10,17,10,22,14.90
2019,10,17,10,23,14.40
2019,10,17,10,24,16.20
2019,10,17,10,25,14.80
2019,10,17,10,26,19.50
2019,10,17,10,27,13.70
2019,10,17,10,28,14.50
2019,10,17,10,29,12.70
2019,10,17,10,30,14.40
2019,10,17,10,31,20.70
2019,10,17,10,32,17.50
2019,10,17,10,33,16.70
2019,10,17,10,34,12.90
2019,10,17,10,35,10.80
2019,10,17,10,36,15.90
2019,10,17,10,37,20.60
2019,10,17,10,38,16.30
2019,10,17,10,39,17.50
2019,10,17,10,40,17.00
2019,10,17,10,41,15.60
2019,10,17,10,42,15.60
2019,10,17,10,43,21.50
2019,10,17,10,44,21.20
2019,10,17,10,45,21.50
2019,10,17,10,46,19.50
2019,10,17,10,47,17.90
2019,10,17,10,48,16.30
2019,10,17,10,49,21.40
2019,10,17,10,50,18.60
2019,10,17,10,51,18.80
2019,10,17,10,52,21.00
2019,10,17,10,53,18.30
2019,10,17,10,54,19.90
2019,10,17,10,55,16.20
2019,10,17,10,56,19.10
2019,10,17,10,57,17.80
2019,10,17,10,58,17.10
2019,10,17,10,59,21.00
2019,10,17,11,00,18.60
2019,10,17,11,01,18.80
2019,10,17,11,02,15.50
2019,10,17,11,03,18.50
2019,10,17,11,04,18.80
2019,10,17,11,05,17.20
2019,10,17,11,06,17.20
2019,10,17,11,07,15.10
2019,10,17,11,08,14.50
2019,10,17,11,09,14.00
2019,10,17,11,10,18.60
2019,10,17,11,11,18.50
2019,10,17,11,12,19.80
2019,10,17,11,13,19.00
2019,10,17,11,14,19.40
2019,10,17,11,15,16.30
2019,10,17,11,16,17.90
2019,10,17,11,17,17.60
2019,10,17,11,18,21.40
2019,10,17,11,19,24.00
2019,10,17,11,20,20.40
2019,10,17,11,21,21.80
2019,10,17,11,22,21.30
2019,10,17,11,23,20.40
2019,10,17,11,24,22.10
2019,10,17,11,25,22.00
2019,10,17,11,26,18.40
2019,10,17,11,27,19.80
2019,10,17,11,28,18.70
2019,10,17,11,29,23.40
2019,10,17,11,30,22.40
2019,10,17,11,31,23.00
2019,10,17,11,32,20.20
2019,10,17,11,33,25.70
2019,10,17,11,34,24.00
2019,10,17,11,35,21.50
2019,10,17,11,36,26.60
2019,10,17,11,37,16.90
2019,10,17,11,38,20.80
2019,10,17,11,39,22.20
2019,10,17,11,40,22.70
2019,10,17,11,41,17.80
2019,10,17,11,42,19.80
2019,10,17,11,43,24.40
2019,10,17,11,44,20.60
2019,10,17,11,45,21.80
2019,10,17,11,46,24.30
2019,10,17,11,47,25.00
2019,10,17,11,48,23.70
2019,10,17,11,49,21.00
2019,10,17,11,50,23.30
2019,10,17,11,51,25.00
2019,10,17,11,52,24.70
2019,10,17,11,53,19.60
2019,10,17,11,54,25.50
2019,10,17,11,55,26.20
2019,10,17,11,56,28.50
2019,10,17,11,57,22.70
2019,10,17,11,58,22.50
2019,10,17,11,59,21.60
2019,10,17,12,00,21.40
2019,10,17,12,01,23.20
2019,10,17,12,02,25.50
2019,10,17,12,03,25.30
2019,10,17,12,04,25.70
2019,10,17,12,05,21.20
2019,10,17,12,06,26.80
2019,10,17,12,07,24.20
2019,10,17,12,08,23.90
2019,10,17,12,09,20.60
2019,10,17,12,10,20.70
2019,10,17,12,11,19.50
2019,10,17,12,12,21.20
2019,10,17,12,13,20.00
2019,10,17,12,14,25.40
2019,10,17,12,15,21.40
2019,10,17,12,16,23.10
2019,10,17,12,17,19.40
2019,10,17,12,18,22.30
2019,10,17,12,19,19.70
2019,10,17,12,20,19.00
2019,10,17,12,21,25.10
2019,10,17,12,22,19.70
2019,10,17,12,23,19.30
2019,10,17,12,24,19.80
2019,10,17,12,25,20.90
2019,10,17,12,26,23.30
2019,10,17,12,27,25.00
2019,10,17,12,28,22.20
2019,10,17,12,29,22.60
2019,10,17,12,30,19.70
2019,10,17,12,31,22.50
2019,10,17,12,32,19.00
2019,10,17,12,33,16.60
2019,10,17,12,34,19.80
2019,10,17,12,35,25.00
2019,10,17,12,36,24.20
2019,10,17,12,37,19.70
2019,10,17,12,38,23.40
2019,10,17,12,39,19.00
2019,10,17,12,40,21.80
2019,10,17,12,41,19.00
2019,10,17,12,42,23.00
2019,10,17,12,43,23.60
2019,10,17,12,44,19.20
2019,10,17,12,45,21.30
2019,10,17,12,46,16.00
2019,10,17,12,47,20.70
2019,10,17,12,48,21.70
2019,10,17,12,49,19.40
2019,10,17,12,50,21.00
2019,10,17,12,51,21.20
2019,10,17,12,52,17.00
2019,10,17,12,53,21.80
2019,10,17,12,54,18.90
2019,10,17,12,55,20.60
2019,10,17,12,56,17.10
2019,10,17,12,57,18.20
2019,10,17,12,58,25.00
2019,10,17,12,59,15.50
2019,10,17,13,00,16.50
2019,10,17,13,01,19.80
2019,10,17,13,02,22.40
2019,10,17,13,03,19.70
2019,10,17,13,04,16.30
2019,10,17,13,05,19.40
2019,10,17,13,06,19.50
2019,10,17,13,07,16.40
2019,10,17,13,08,15.50
2019,10,17,13,09,19.60
2019,10,17,13,10,14.90
2019,10,17,13,11,14.70
2019,10,17,13,12,12.50
2019,10,17,13,13,11.30
2019,10,17,13,14,12.90
2019,10,17,13,15,9.80
2019,10,17,13,16,12.50
2019,10,17,13,17,8.80
2019,10,17,13,18,15.60
2019,10,17,13,19,11.20
2019,10,17,13,20,16.30
2019,10,17,13,21,24.90
2019,10,17,13,22,22.10
2019,10,17,13,23,17.30
2019,10,17,13,24,14.40
2019,10,17,13,25,19.20
2019,10,17,13,26,16.70
2019,10,17,13,27,23.00
2019,10,17,13,28,24.10
2019,10,17,13,29,21.20
2019,10,17,13,30,18.90
2019,10,17,13,31,18.80
2019,10,17,13,32,20.90
2019,10,17,13,33,18.80
2019,10,17,13,34,16.00
2019,10,17,13,35,18.20
2019,10,17,13,36,19.50
2019,10,17,13,37,17.90
2019,10,17,13,38,14.10
2019,10,17,13,39,20.60
2019,10,17,13,40,20.10
2019,10,17,13,41,13.80
2019,10,17,13,42,16.70
2019,10,17,13,43,11.90
2019,10,17,13,44,15.20
2019,10,17,13,45,15.60
2019,10,17,13,46,13.10
2019,10,17,13,47,15.10
2019,10,17,13,48,11.80
2019,10,17,13,49,17.00
2019,10,17,13,50,16.70
2019,10,17,13,51,15.70
2019,10,17,13,52,16.90
2019,10,17,13,53,19.20
2019,10,17,13,54,17.70
2019,10,17,13,55,28.90
2019,10,17,13,56,27.60
2019,10,17,13,57,21.40
2019,10,17,13,58,31.10
2019,10,17,13,59,25.20
2019,10,17,14,00,26.30
2019,10,17,14,01,28.80
2019,10,17,14,02,28.40
2019,10,17,14,03,29.20
2019,10,17,14,04,25.50
2019,10,17,14,05,28.90
2019,10,17,14,06,24.30
2019,10,17,14,07,29.60
2019,10,17,14,08,25.40
2019,10,17,14,09,22.20
2019,10,17,14,10,20.90
2019,10,17,14,11,20.10
2019,10,17,14,12,18.80
2019,10,17,14,13,22.10
2019,10,17,14,14,16.30
2019,10,17,14,15,11.30
2019,10,17,14,16,16.90
2019,10,17,14,17,16.30
2019,10,17,14,18,13.80
2019,10,17,14,19,14.90
2019,10,17,14,20,17.40
2019,10,17,14,21,15.70
2019,10,17,14,22,19.60
2019,10,17,14,23,19.80
2019,10,17,14,24,26.30
2019,10,17,14,25,23.40
2019,10,17,14,26,22.80
2019,10,17,14,27,25.10
2019,10,17,14,28,20.70
2019,10,17,14,29,22.80
2019,10,17,14,30,21.20
2019,10,17,14,31,26.80
2019,10,17,14,32,28.70
2019,10,17,14,33,28.00
2019,10,17,14,34,23.30
2019,10,17,14,35,22.80
2019,10,17,14,36,22.50
2019,10,17,14,37,20.70
2019,10,17,14,38,23.50
2019,10,17,14,39,21.00
2019,10,17,14,40,17.50
2019,10,17,14,41,14.70
2019,10,17,14,42,18.40
2019,10,17,14,43,18.10
2019,10,17,14,44,19.90
2019,10,17,14,45,21.20
2019,10,17,14,46,20.90
2019,10,17,14,47,20.70
2019,10,17,14,48,24.20
2019,10,17,14,49,27.90
2019,10,17,14,50,30.20
2019,10,17,14,51,22.30
2019,10,17,14,52,21.60
2019,10,17,14,53,16.90
2019,10,17,14,54,23.80
2019,10,17,14,55,24.60
2019,10,17,14,56,18.10
2019,10,17,14,57,19.30
2019,10,17,14,58,16.30
2019,10,17,14,59,14.00
2019,10,17,15,00,16.70
2019,10,17,15,01,14.20
2019,10,17,15,02,15.20
2019,10,17,15,03,18.80
2019,10,17,15,04,16.60
2019,10,17,15,05,16.60
2019,10,17,15,06,17.70
2019,10,17,15,07,16.40
2019,10,17,15,08,15.50
2019,10,17,15,09,16.20
2019,10,17,15,10,17.90
2019,10,17,15,11,18.60
2019,10,17,15,12,15.90
2019,10,17,15,13,19.60
2019,10,17,15,14,17.60
2019,10,17,15,15,11.20
2019,10,17,15,16,16.20
2019,10,17,15,17,14.00
2019,10,17,15,18,10.10
2019,10,17,15,19,8.50
2019,10,17,15,20,8.10
2019,10,17,15,21,6.00
2019,10,17,15,22,7.80
2019,10,17,15,23,14.30
2019,10,17,15,24,14.10
2019,10,17,15,25,6.70
2019,10,17,15,26,4.30
2019,10,17,15,27,4.20
2019,10,17,15,28,6.30
2019,10,17,15,29,5.80
2019,10,17,15,30,3.50
2019,10,17,15,31,4.00
2019,10,17,15,32,5.90
2019,10,17,15,33,5.00
2019,10,17,15,34,4.30
2019,10,17,15,35,4.50
2019,10,17,15,36,4.00
2019,10,17,15,37,5.50
2019,10,17,15,38,5.80
2019,10,17,15,39,5.20
2019,10,17,15,40,5.60
2019,10,17,15,41,2.60
2019,10,17,15,42,6.00
2019,10,17,15,43,5.30
2019,10,17,15,44,3.70
2019,10,17,15,45,2.70
2019,10,17,15,46,2.90
2019,10,17,15,47,7.90
2019,10,17,15,48,8.90
2019,10,17,15,49,8.40
2019,10,17,15,50,12.40
2019,10,17,15,51,15.70
2019,10,17,15,52,17.10
2019,10,17,15,53,14.60
2019,10,17,15,54,13.50
2019,10,17,15,55,13.20
2019,10,17,15,56,15.40
2019,10,17,15,57,10.70
2019,10,17,15,58,10.00
2019,10,17,15,59,13.80
2019,10,17,16,00,13.70
2019,10,17,16,01,17.10
2019,10,17,16,02,15.40
2019,10,17,16,03,15.00
2019,10,17,16,04,15.10
2019,10,17,16,05,16.50
2019,10,17,16,06,13.50
2019,10,17,16,07,10.40
2019,10,17,16,08,13.10
2019,10,17,16,09,15.00
2019,10,17,16,10,11.60
2019,10,17,16,11,13.00
2019,10,17,16,12,10.10
2019,10,17,16,13,10.70
2019,10,17,16,14,10.60
2019,10,17,16,15,9.20
2019,10,17,16,16,9.70
2019,10,17,16,17,5.40
2019,10,17,16,18,8.80
2019,10,17,16,19,4.90
2019,10,17,16,20,7.00
2019,10,17,16,21,5.50
2019,10,17,16,22,5.30
2019,10,17,16,23,4.50
2019,10,17,16,24,4.10
2019,10,17,16,25,7.20
2019,10,17,16,26,6.20
2019,10,17,16,27,7.70
2019,10,17,16,28,5.80
2019,10,17,16,29,9.60
2019,10,17,16,30,9.80
2019,10,17,16,31,10.50
2019,10,17,16,32,12.10
2019,10,17,16,33,11.00
2019,10,17,16,34,11.70
2019,10,17,16,35,13.90
2019,10,17,16,36,11.70
2019,10,17,16,37,13.70
2019,10,17,16,38,11.90
2019,10,17,16,39,10.20
2019,10,17,16,40,10.50
2019,10,17,16,41,12.40
2019,10,17,16,42,12.90
2019,10,17,16,43,11.70
2019,10,17,16,44,15.10
2019,10,17,16,45,13.50
2019,10,17,16,46,14.30
2019,10,17,16,47,14.10
2019,10,17,16,48,11.40
2019,10,17,16,49,14.00
2019,10,17,16,50,16.90
2019,10,17,16,51,14.50
2019,10,17,16,52,14.90
2019,10,17,16,53,15.80
2019,10,17,16,54,19.00
2019,10,17,16,55,16.00
2019,10,17,16,56,15.80
2019,10,17,16,57,14.10
2019,10,17,16,58,14.80
2019,10,17,16,59,14.70
2019,10,17,17,00,14.50
2019,10,17,17,01,14.00
2019,10,17,17,02,17.20
2019,10,17,17,03,12.80
2019,10,17,17,04,17.20
2019,10,17,17,05,14.90
2019,10,17,17,06,14.40
2019,10,17,17,07,15.00
2019,10,17,17,08,14.70
2019,10,17,17,09,17.80
2019,10,17,17,10,14.10
2019,10,17,17,11,14.80
2019,10,17,17,12,15.10
2019,10,17,17,13,11.60
2019,10,17,17,14,13.60
2019,10,17,17,15,13.50
2019,10,17,17,16,15.60
2019,10,17,17,17,12.20
2019,10,17,17,18,12.20
2019,10,17,17,19,13.40
2019,10,17,17,20,9.50
2019,10,17,17,21,12.90
2019,10,17,17,22,13.30